Regional Weather Roundup
Issued by NWS State College, PA

Home | Current Version | Previous Version | Text Only | Print | Product List | Glossary Off
Versions: 1 2 3 4 5 6 7 8 9 10 11 12 13 14 15 16 17 18 19 20 21 22 23 24 25 26 27 28 29 30 31 32 33 34 35 36 37 38 39 40 41 42 43 44 45 46 47 48 49 50

000
ASUS41 KCTP 270503
RWRCTP

REGIONAL WEATHER ROUNDUP
NATIONAL WEATHER SERVICE STATE COLLEGE PA
1200 AM EST MON FEB 27 2017

Note: "fair" indicates few or no clouds below 12,000 feet with no
significant weather and/or obstructions to visibility.

* = STATION THAT DOES NOT REPORT PRECIPITATION /E.G. RAIN...SNOW...ETC/
    THUNDER OR FOG.

PAZ002>004-007>009-013>016-020>023-029>032-270600-
WESTERN PENNSYLVANIA

CITY           SKY/WX    TMP DP  RH WIND       PRES   REMARKS
ERIE           CLEAR     38  18  44 SW22G31   30.13R
MEADVILLE      CLEAR     32  16  51 S9        30.14R
FRANKLIN*      CLEAR     30  12  47 SW8       30.17S
NEW CASTLE     FAIR      32  16  51 CALM      30.19S
BEAVER COUNTY  NOT AVBL
BUTLER*        CLEAR     34  14  44 S7        30.20R
PITTSBURGH INT PTCLDY    32  15  49 S6        30.19S
PITTSBURGH     CLEAR     33  11  39 S8        30.19F
INDIANA*       PTCLDY    30  16  55 SW7       30.23R
LATROBE        CLEAR     30  14  51 SW6       30.23S
WASHINGTON CO* PTCLDY    25  18  74 CALM      30.22S
$$

PAZ004>006-010>012-017>019-024>028-033>037-041-042-045-046-049>053-270600-
CENTRAL PENNSYLVANIA

CITY           SKY/WX    TMP DP  RH WIND       PRES   REMARKS
BRADFORD       CLEAR     29  15  56 SW9       30.12R
DUBOIS         CLEAR     30  13  49 SW12      30.15R
CLEARFIELD       N/A    N/A N/A N/A MISG      30.19R
JOHNSTOWN      CLEAR     30  11  45 SW9       30.17R
ALTOONA        CLEAR     31  16  54 SW12      30.22R
STATE COLLEGE  CLEAR     29  15  55 SW5       30.20S
WILLIAMSPORT   CLEAR     27  19  72 CALM      30.24R
SELINSGROVE    PTCLDY    24  20  84 CALM      30.25S
FT INDIANTOWN  CLEAR     25  22  87 CALM      30.26R
CAPITAL CITY   CLEAR     28  19  69 SW5       30.27S
HARRISBURG     CLEAR     30  23  75 E5        30.27R
YORK           CLEAR     23  21  92 CALM      30.27R
$$

PAZ038>040-043-044-047-048-054-055-060>062-067>071-270600-
EASTERN PENNSYLVANIA

CITY           SKY/WX    TMP DP  RH WIND       PRES   REMARKS
SCRANTON       CLEAR     30  17  58 SW6       30.20S
MOUNT POCONO   CLEAR     25  15  66 W10       30.15S WCI  15
ALLENTOWN      CLEAR     28  16  60 S3        30.26S
QUAKERTOWN*    CLEAR     25  21  86 CALM      30.27R
READING        CLEAR     30  19  63 S5        30.27R
LANCASTER      CLEAR     30  20  66 CALM      30.28R
COATESVILLE    CLEAR     30  18  59 CALM      30.28R
POTTSTOWN      CLEAR     26  17  68 CALM      30.29R
BLUE BELL      CLEAR     28  23  80 CALM      30.28R
DOYLESTOWN     CLEAR     30  18  60 CALM      30.27R
WILLOW GROVE   NOT AVBL
NORTH PHILA    CLEAR     34  18  52 CALM      30.31R
PHILADELPHIA   CLEAR     34  17  50 SW5       30.31R
$$



USA.gov is the U.S. government's official web portal to all federal, state and local government web resources and services.